Tracking 20942 objects as of 9-Jul-2020
HD Live streaming from Space Station
objects crossing your sky now

FENGYUN 1C DEB

Track FENGYUN 1C DEB now!
10-day predictions


NORAD ID: 31302
Int'l Code: 1999-025BPL
Perigee: 833.7 km
Apogee: 879.2 km
Inclination: 99.4 °
Period: 101.9 minutes
Semi major axis: 7227 km
RCS: 0.011 m2 (small)
Launch date: May 10, 1999
Source: People's Republic of China (PRC)
Launch site: Taiyaun Space Center, China (TSC)

Note: This is SATELLITE DEBRIS
aabbcc
Your satellite tracking list
Your tracking list is empty




NASA's NSSDC Master Catalog

Two Line Element Set (TLE):
1 31302U 99025BPL 20191.21930546  .00000338  00000-0  20637-3 0  9992
2 31302  99.3698  91.7541 0031459 227.1500 284.7048 14.12946645683272
Source of the keplerian elements: AFSPC